Location: Ahstedt
(52.2048°N, 10.1060°E)
Time: 22:04:39
(UTC+00:00)

Cosmos 2082 Rocket - Pass Details

Date: 17 April 2026
Orbit: 831 x 853 km, 71.0° (Epoch: 19 May)

Event Time Altitude Azimuth Distance (km) Brightness Sun altitude
Exits shadow 02:13:02 28° 230° (SW) 1,541 3.0 -17.1°
Maximum altitude 02:16:03 66° 305° (NW) 931 2.3 -16.8°
Drops below altitude 10° 02:21:46 10° 28° (NNE) 2,495 5.8 -16.2°
Sets 02:24:16 0° 31° (NNE) 3,434 6.9 -15.9°
